TimeMDT,TemperatureF,Dew PointF,Humidity,Sea Level PressureIn,VisibilityMPH,Wind Direction,Wind SpeedMPH,Gust SpeedMPH,PrecipitationIn,Events,Conditions,WindDirDegrees,DateUTC
12:51 AM,32.0,25.0,75,29.55,-9999.0,East,3.5,-,N/A,,Unknown,100,2013-10-28 06:51:00
1:51 AM,34.0,26.1,73,29.49,-9999.0,East,3.5,-,N/A,,Unknown,100,2013-10-28 07:51:00
2:51 AM,36.0,32.0,86,29.49,-9999.0,WSW,4.6,-,0.02,,Unknown,240,2013-10-28 08:51:00
3:51 AM,34.0,33.1,96,29.49,-9999.0,Calm,Calm,-,0.04,,Unknown,0,2013-10-28 09:51:00
4:51 AM,35.1,34.0,96,29.47,-9999.0,Calm,Calm,-,N/A,,Unknown,0,2013-10-28 10:51:00
5:51 AM,36.0,34.0,93,29.46,-9999.0,WNW,4.6,-,0.01,,Unknown,290,2013-10-28 11:51:00
6:51 AM,35.1,33.1,92,29.47,-9999.0,WNW,5.8,-,0.01,,Unknown,290,2013-10-28 12:51:00
7:51 AM,35.1,33.1,92,29.49,-9999.0,West,5.8,-,N/A,,Unknown,280,2013-10-28 13:51:00
8:51 AM,34.0,30.9,89,29.52,-9999.0,West,6.9,-,N/A,,Unknown,270,2013-10-28 14:51:00
9:51 AM,36.0,30.9,82,29.54,-9999.0,WNW,5.8,-,N/A,,Unknown,290,2013-10-28 15:51:00
10:51 AM,39.0,30.9,73,29.54,-9999.0,Variable,3.5,-,N/A,,Unknown,0,2013-10-28 16:51:00
11:51 AM,39.9,30.0,68,29.53,-9999.0,North,5.8,-,N/A,,Unknown,350,2013-10-28 17:51:00
12:51 PM,37.0,30.0,76,29.53,-9999.0,NW,3.5,-,N/A,,Unknown,320,2013-10-28 18:51:00
1:51 PM,34.0,32.0,92,29.54,-9999.0,West,4.6,-,0.03,,Unknown,280,2013-10-28 19:51:00
2:51 PM,32.0,32.0,100,29.55,-9999.0,Variable,4.6,-,0.04,,Unknown,0,2013-10-28 20:51:00
3:51 PM,32.0,30.9,96,29.57,-9999.0,Calm,Calm,-,0.07,,Unknown,0,2013-10-28 21:51:00
4:51 PM,32.0,30.9,96,29.57,-9999.0,Variable,6.9,-,0.11,,Unknown,0,2013-10-28 22:51:00
5:51 PM,32.0,28.9,88,29.58,-9999.0,West,6.9,-,0.01,,Unknown,280,2013-10-28 23:51:00
6:51 PM,30.9,28.0,89,29.59,-9999.0,West,5.8,-,N/A,,Unknown,280,2013-10-29 00:51:00
7:51 PM,28.9,26.1,89,29.61,-9999.0,NNW,3.5,-,N/A,,Unknown,330,2013-10-29 01:51:00
8:51 PM,28.0,25.0,88,29.64,-9999.0,Calm,Calm,-,N/A,,Unknown,0,2013-10-29 02:51:00
9:51 PM,28.0,25.0,88,29.64,-9999.0,Calm,Calm,-,N/A,,Unknown,0,2013-10-29 03:51:00
10:51 PM,26.1,24.1,92,29.67,-9999.0,Calm,Calm,-,N/A,,Unknown,0,2013-10-29 04:51:00
11:51 PM,28.0,27.0,96,29.69,-9999.0,Calm,Calm,-,N/A,,Unknown,0,2013-10-29 05:51:00